Home   Weather   Köniz   Past weeks

Flag for Switzerland Past Weather in Köniz, Bern, Switzerland — Yesterday and Last 2 Weeks

Now
41 °F

Partly sunny.


Feels Like: 41 °F
Forecast: 37 / 51 °F
Wind: 2 mph from North

Location: Bern / Belp

Current Time: Feb 21, 2017 at 8:35:32 am

Latest Report: Feb 21, 2017 at 7:50 am


Visibility: N/A

Pressure: 30.18 "Hg (28.11 "Hg at 579m altitude)

Humidity: 93%

Dew Point: 39 °F

Location of KönizLocation

Past Weather in Köniz — Graph

°F

Köniz Temperature Yesterday

Maximum temperature yesterday: 54 °F (at 3:50 pm)
Minimum temperature yesterday: 25 °F (at 7:20 am)
Average temperature yesterday: 40 °F

High & Low Weather Summary for the Past Weeks

 TemperatureHumidityPressure
High59 °F (Feb 16, 2:50 pm)100% (Feb 6, 7:20 am)30.57 "Hg (Feb 6, 7:20 am)
Low21 °F (Feb 19, 7:50 am)41% (Feb 16, 3:20 pm)29.86 "Hg (Feb 6, 7:20 am)
Average36 °F87%30.21 "Hg
* Reported Feb 6 7:20 am — Feb 21 7:20 am, Köniz, Weather by CustomWeather, © 2017

Note: Actual official high and low records may vary slightly from our data, if they occured in-between our weather recording intervals... More about our weather records

Advertising

Köniz Weather History for the Previous 24 Hours

Scroll right to see more
 ConditionsComfort  
Time TempWeatherWind HumidityBarometerVisibility
7:20 am
Tue, Feb 21
41 °FSprinkles. Passing clouds.2 mph93%30.18 "HgN/A
6:50 am41 °FSprinkles. Passing clouds.3 mph93%30.18 "HgN/A
6:20 am41 °FPassing clouds.1 mph93%30.18 "HgN/A
5:50 am41 °FLight rain. Passing clouds.2 mph87%30.18 "HgN/A
5:20 am41 °FPartly cloudy.1 mph87%30.18 "HgN/A
4:50 am41 °FMostly cloudy.2 mph87%30.18 "HgN/A
4:20 am43 °FPartly cloudy.1 mph81%30.18 "HgN/A
3:50 am43 °FMostly cloudy.1 mph81%30.18 "HgN/A
3:20 am43 °FPassing clouds.2 mph81%30.21 "HgN/A
2:50 am43 °FPartly cloudy.6 mph81%30.21 "HgN/A
2:20 am43 °FPassing clouds.7 mph81%30.21 "HgN/A
1:50 am43 °FPassing clouds.7 mph81%30.21 "HgN/A
1:20 am43 °FPassing clouds.6 mph81%30.21 "HgN/A
12:50 am43 °FPassing clouds.2 mph81%30.24 "HgN/A
12:20 am43 °FOvercast.3 mph87%30.21 "HgN/A
11:50 pm
Mon, Feb 20
43 °FPassing clouds.1 mph81%30.21 "HgN/A
11:20 pm45 °FPartly cloudy.2 mph71%30.21 "HgN/A
10:50 pm45 °FOvercast.6 mph71%30.21 "HgN/A
10:20 pm45 °FPassing clouds.3 mph76%30.21 "HgN/A
9:50 pm43 °FPassing clouds.6 mph81%30.21 "HgN/A
9:20 pm45 °FPassing clouds.3 mph76%30.21 "HgN/A
8:50 pm45 °FPassing clouds.2 mph76%30.21 "HgN/A
8:20 pm45 °FPassing clouds.2 mph76%30.21 "HgN/A
7:50 pm45 °FPassing clouds.2 mph76%30.21 "HgN/A
7:20 pm46 °FPassing clouds.2 mph76%30.21 "HgN/A
6:50 pm46 °FPassing clouds.1 mph71%30.21 "HgN/A
6:20 pm48 °FPassing clouds.1 mph62%30.18 "HgN/A
5:50 pm48 °FBroken clouds.5 mph66%30.18 "HgN/A
5:20 pm52 °FPartly sunny.5 mph54%30.18 "HgN/A
4:50 pm52 °FScattered clouds.5 mph54%30.18 "HgN/A
4:20 pm52 °FPassing clouds.7 mph54%30.18 "HgN/A
3:50 pm54 °FPassing clouds.6 mph47%30.18 "HgN/A
3:20 pm50 °FScattered clouds.5 mph54%30.21 "HgN/A
2:50 pm50 °FPassing clouds.6 mph54%30.21 "HgN/A
2:20 pm52 °FPassing clouds.7 mph47%30.21 "HgN/A
1:50 pm50 °FSunny.5 mph54%30.24 "Hg10 mi
1:20 pm52 °FPassing clouds.2 mph50%30.24 "HgN/A
12:50 pm50 °FPassing clouds.No wind54%30.27 "HgN/A
12:20 pm48 °FPassing clouds.2 mph54%30.27 "HgN/A
11:50 am48 °FPassing clouds.1 mph54%30.27 "HgN/A
11:20 am46 °FPassing clouds.3 mph57%30.27 "HgN/A
10:50 am43 °FPassing clouds.7 mph66%30.27 "HgN/A
10:20 am41 °FPassing clouds.9 mph70%30.27 "HgN/A
9:50 am37 °FPassing clouds.8 mph81%30.27 "HgN/A
9:20 am34 °FPassing clouds.7 mph87%30.27 "HgN/A
8:50 am30 °FSunny.5 mph100%30.30 "Hg10 mi
8:20 am28 °FSunny.2 mph93%30.27 "Hg10 mi
Weather by CustomWeather, © 2017

See weather overviewHow to use our weather pages